Probability
65 65 61 65 61 68 68 58 48 48 42 45 52 42 48 42 48 48 32 26 23 35 29 29 42 39 32 29 23 26 19 29 23 6 23 13 16 13 6 19 13 13 6
68 71 61 65 65 61 45 45 48 45 45 39 39 35 35 26 32 29 29 16 16 13 16 16 13 19 29 29 35 23 16 23 16 13 16 6 6 6 6 13 6 0 0
58 58 58 58 58 48 45 39 42 35 35 32 35 32 23 23 23 29 26 19 23 19 16 16 13 16 23 19 23 23 13 10 16 13 13 16 6 3 3 3 0 6 0
55 55 52 42 39 42 42 39 39 39 32 35 32 32 26 29 26 26 23 26 29 26 23 26 19 16 23 16 16 26 19 23 19 13 13 6 6 6 10 3 0 3 0
55 55 39 42 39 39 39 35 32 35 29 29 29 26 19 13 13 13 19 19 29 26 26 26 23 6 6 6 3 19 16 6 3 3 3 6 6 6 0 0 0 0 0
52 35 32 35 39 39 32 32 29 29 26 26 26 23 13 13 3 0 3 16 26 26 26 16 13 6 3 0 0 0 0 0 0 0 0 3 3 3 0 0 0 3 3
48 32 35 35 35 35 19 23 26 29 26 35 29 23 19 10 3 0 0 6 19 13 13 16 10 3 3 3 0 0 0 0 0 0 0 3 6 6 6 3 3 3 0
45 29 29 29 29 23 19 19 23 26 29 23 19 13 13 3 0 0 0 0 3 6 6 6 6 6 3 6 6 3 3 0 0 0 0 3 3 6 10 6 0 0 3
32 32 29 29 23 16 16 19 26 26 26 26 16 10 6 3 0 0 0 3 3 3 3 3 3 6 6 0 3 6 6 6 0 0 0 0 0 0 3 3 0 0 0
32 29 26 23 19 16 16 23 26 23 23 13 6 3 3 3 3 0 0 3 3 3 3 3 0 0 0 0 0 3 3 6 6 0 0 0 0 0 0 3 3 0 0
23 19 19 19 19 23 26 23 19 16 3 3 3 3 3 3 3 0 0 3 3 3 3 3 3 0 0 0 0 3 3 3 6 0 0 3 3 0 0 0 0 0 0
23 23 19 23 16 16 23 16 16 13 6 3 3 6 6 3 3 0 0 0 0 3 3 3 3 0 0 0 0 0 0 0 0 0 0 0 0 0 0 0 0 0 0
19 23 23 23 19 16 16 16 6 6 3 3 3 3 3 3 3 0 0 0 0 0 3 3 0 0 0 0 0 0 0 0 0 0 0 0 0 0 0 0 0 0 0
19 26 26 16 13 16 16 13 3 3 3 3 3 3 3 3 3 3 0 0 0 0 0 0 0 0 0 0 0 0 0 0 0 0 0 0 0 0 0 0 0 0 0
19 16 16 16 16 16 13 10 3 6 3 3 3 3 3 3 3 3 3 0 0 0 0 0 0 0 0 0 0 0 0 0 0 0 0 0 0 0 0 0 0 0 0
13 13 6 10 16 13 10 10 0 0 0 0 0 0 3 3 3 0 0 0 0 0 0 0 0 0 0 0 0 0 0 0 0 0 0 0 0 0 0 0 0 0 0
13 10 6 3 6 10 6 10 6 0 0 0 0 0 0 0 0 0 0 0 0 0 0 0 0 0 0 0 0 0 0 0 0 0 0 0 0 0 0 0 0 0 0
10 3 3 6 10 10 6 10 6 3 3 0 0 0 0 0 0 0 0 0 0 0 0 0 0 0 0 0 0 0 0 0 0 0 0 0 0 0 0 0 0 0 0
10 10 10 10 10 3 6 6 0 0 0 0 0 0 0 0 0 0 0 0 0 0 0 0 0 0 0 0 0 0 0 0 0 0 0 0 0 0 0 0 0 0 0
10 6 3 6 3 3 0 0 0 0 0 0 0 0 0 0 0 0 0 0 0 0 0 0 0 0 0 0 0 0 0 0 0 0 0 0 0 0 0 0 0 0 0
6 6 0 3 0 0 0 0 0 0 0 0 0 0 0 0 0 0 0 0 0 0 0 0 0 0 0 0 0 0 0 0 0 0 0 0 0 0 0 0 0 0 0
6 6 6 3 3 0 0 0 0 0 0 0 0 0 0 0 0 0 0 0 0 0 0 0 0 0 0 0 0 0 0 0 0 0 0 0 0 0 0 0 0 0 0
0 6 0 0 0 0 0 0 0 0 0 0 0 0 0 0 0 0 0 0 0 0 0 0 0 0 0 0 0 0 0 0 0 0 0 0 0 0 0 0 0 0 0
0 0 0 0 0 0 0 0 0 0 0 0 0 0 0 0 0 0 0 0 0 0 0 0 0 0 0 0 0 0 0 0 0 0 0 0 0 0 0 0 0 0 0
0 0 0 0 0 0 0 0 0 0 0 0 0 0 0 0 0 0 0 0 0 0 0 0 0 0 0 0 0 0 0 0 0 0 0 0 0 0 0 0 0 0 0
0 0 0 0 0 0 0 0 0 0 0 0 0 0 0 0 0 0 0 0 0 0 0 0 0 0 0 0 0 0 0 0 0 0 0 0 0 0 0 0 0 0 0
Height
5880 5880 5880 5881 5881 5881 5881 5880 5880 5880 5880 5881 5881 5882 5882 5882 5883 5883 5883 5883 5883 5883 5882 5881 5881 5880 5879 5878 5877 5877 5876 5875 5874 5872 5871 5869 5868 5867 5865 5863 5862 5860 5858
5879 5879 5879 5879 5879 5879 5879 5879 5878 5878 5878 5878 5878 5878 5879 5879 5879 5879 5879 5879 5879 5878 5877 5877 5876 5874 5873 5872 5871 5870 5869 5868 5867 5866 5864 5862 5861 5859 5857 5855 5854 5852 5850
5877 5877 5877 5877 5877 5876 5876 5876 5876 5875 5875 5875 5875 5875 5875 5875 5875 5875 5874 5874 5874 5873 5872 5871 5870 5869 5868 5866 5865 5864 5863 5861 5860 5858 5857 5855 5853 5851 5849 5847 5845 5843 5842
5876 5875 5875 5874 5874 5873 5873 5873 5873 5872 5872 5872 5871 5871 5871 5871 5870 5870 5869 5869 5869 5868 5867 5866 5865 5864 5862 5860 5859 5857 5856 5855 5853 5851 5849 5848 5846 5844 5841 5839 5837 5835 5832
5874 5873 5872 5871 5870 5870 5869 5869 5869 5869 5869 5868 5867 5867 5867 5866 5866 5865 5864 5864 5863 5863 5862 5860 5859 5857 5856 5854 5853 5851 5849 5847 5846 5844 5842 5840 5838 5836 5833 5831 5828 5826 5823
5871 5870 5869 5868 5867 5866 5866 5866 5866 5865 5865 5864 5864 5863 5862 5861 5861 5860 5859 5859 5858 5857 5856 5854 5853 5851 5849 5848 5846 5844 5842 5840 5838 5836 5834 5832 5830 5827 5825 5822 5819 5817 5815
5868 5867 5866 5865 5864 5864 5863 5863 5862 5861 5861 5860 5859 5858 5858 5857 5856 5855 5854 5853 5852 5851 5849 5848 5846 5844 5842 5840 5838 5836 5834 5832 5831 5828 5826 5824 5821 5819 5816 5813 5810 5807 5805
5866 5865 5863 5862 5862 5861 5860 5859 5858 5857 5856 5856 5855 5854 5853 5851 5850 5849 5848 5847 5845 5844 5842 5841 5839 5837 5835 5833 5831 5829 5827 5824 5822 5820 5818 5815 5813 5810 5807 5804 5801 5797 5794
5862 5861 5860 5859 5858 5857 5856 5855 5854 5853 5852 5851 5850 5849 5847 5846 5845 5843 5842 5840 5839 5837 5835 5833 5831 5830 5827 5825 5823 5821 5818 5816 5813 5811 5809 5806 5803 5800 5797 5794 5791 5787 5784
5858 5857 5856 5855 5854 5854 5852 5851 5850 5849 5847 5846 5845 5843 5842 5840 5839 5837 5836 5834 5832 5830 5828 5826 5824 5822 5820 5817 5815 5812 5810 5807 5805 5802 5799 5796 5793 5790 5787 5784 5781 5777 5774
5853 5852 5852 5850 5850 5849 5848 5846 5845 5843 5842 5840 5839 5837 5836 5834 5833 5831 5829 5827 5824 5823 5820 5818 5816 5814 5812 5809 5807 5804 5801 5799 5796 5793 5790 5787 5784 5781 5777 5774 5770 5767 5763
5848 5847 5846 5845 5844 5844 5842 5841 5839 5838 5836 5834 5832 5831 5829 5828 5826 5824 5822 5820 5818 5815 5813 5810 5808 5806 5803 5801 5798 5795 5792 5790 5787 5783 5780 5777 5774 5771 5767 5764 5760 5756 5753
5842 5841 5840 5839 5838 5837 5836 5834 5833 5831 5829 5828 5826 5824 5822 5820 5819 5817 5815 5812 5810 5808 5805 5802 5800 5797 5795 5792 5789 5786 5783 5780 5777 5774 5770 5767 5764 5760 5756 5753 5749 5746 5742
5836 5835 5834 5832 5832 5830 5829 5827 5826 5824 5822 5821 5819 5817 5815 5813 5811 5809 5806 5804 5802 5799 5796 5793 5791 5789 5786 5783 5780 5777 5774 5771 5767 5764 5761 5757 5754 5750 5747 5743 5739 5736 5732
5829 5828 5827 5826 5825 5823 5822 5820 5818 5817 5815 5813 5811 5810 5807 5805 5803 5801 5798 5796 5793 5791 5788 5785 5783 5780 5777 5774 5771 5768 5764 5761 5758 5755 5751 5748 5744 5741 5737 5734 5730 5726 5722
5822 5821 5820 5818 5817 5816 5814 5812 5810 5809 5807 5805 5803 5802 5799 5797 5795 5793 5790 5788 5785 5782 5780 5777 5774 5771 5768 5765 5762 5758 5755 5752 5748 5745 5742 5739 5735 5732 5728 5724 5721 5717 5713
5815 5814 5812 5811 5809 5808 5806 5804 5803 5801 5799 5797 5795 5793 5791 5789 5787 5784 5782 5779 5776 5774 5771 5769 5766 5763 5760 5756 5753 5749 5746 5742 5739 5736 5733 5730 5726 5723 5719 5715 5712 5708 5704
5807 5806 5804 5803 5801 5799 5798 5796 5794 5792 5791 5788 5786 5785 5783 5781 5778 5776 5773 5771 5768 5766 5763 5760 5757 5754 5751 5747 5744 5740 5737 5734 5731 5727 5724 5721 5718 5714 5710 5707 5703 5699 5695
5798 5797 5796 5795 5793 5791 5789 5788 5786 5784 5782 5780 5778 5776 5774 5772 5770 5767 5765 5762 5760 5757 5754 5752 5749 5746 5742 5739 5735 5732 5729 5725 5722 5719 5716 5712 5709 5705 5702 5698 5694 5690 5686
5790 5789 5788 5786 5785 5783 5781 5780 5778 5776 5774 5772 5770 5768 5766 5764 5761 5759 5756 5754 5751 5749 5746 5743 5740 5737 5734 5730 5727 5724 5720 5717 5714 5710 5707 5704 5700 5697 5693 5689 5686 5682 5678
5782 5781 5780 5779 5777 5776 5774 5772 5770 5768 5766 5765 5762 5760 5758 5755 5753 5750 5748 5745 5743 5740 5737 5735 5732 5728 5725 5722 5719 5715 5712 5709 5705 5702 5699 5695 5692 5689 5685 5682 5678 5674 5671
5774 5773 5772 5771 5770 5768 5766 5765 5763 5761 5759 5757 5754 5752 5750 5747 5745 5742 5740 5737 5735 5732 5729 5726 5723 5720 5717 5714 5711 5707 5704 5701 5698 5694 5691 5688 5684 5681 5678 5674 5671 5667 5663
5766 5765 5764 5763 5762 5760 5759 5757 5755 5753 5751 5749 5747 5744 5742 5740 5737 5735 5732 5730 5727 5724 5721 5718 5715 5712 5709 5706 5703 5700 5697 5693 5690 5687 5683 5680 5677 5674 5670 5667 5664 5660 5657
5758 5757 5757 5756 5754 5753 5752 5750 5748 5746 5744 5741 5739 5737 5735 5732 5730 5727 5725 5722 5719 5716 5713 5710 5707 5705 5702 5698 5695 5692 5689 5686 5683 5680 5676 5673 5670 5667 5664 5660 5657 5654 5651
5751 5750 5749 5748 5747 5746 5744 5742 5740 5738 5736 5734 5732 5729 5727 5724 5722 5720 5717 5715 5712 5709 5706 5703 5700 5697 5694 5691 5688 5685 5682 5679 5676 5673 5669 5666 5663 5660 5657 5654 5651 5647 5644
5744 5743 5742 5741 5740 5738 5736 5735 5733 5731 5729 5727 5725 5722 5720 5717 5715 5713 5710 5707 5704 5701 5699 5696 5693 5690 5687 5684 5681 5678 5675 5672 5669 5666 5662 5659 5657 5653 5650 5647 5644 5641 5638
Wind_Speed
3 4 5 6 7 7 8 8 9 9 10 11 13 13 14 15 15 16 16 17 17 18 19 20 20 21 21 22 22 24 24 26 26 26 27 27 27 28 29 29 29 30 30
5 5 6 7 8 9 10 10 10 10 11 12 13 14 14 15 16 16 17 18 18 19 20 20 21 22 22 22 24 24 25 25 26 26 27 28 29 30 31 31 32 32 32
6 7 8 8 9 10 11 11 12 12 12 12 13 14 15 16 17 17 17 18 19 20 20 21 21 22 23 23 25 25 25 26 27 28 28 29 31 31 32 33 34 34 35
8 9 9 10 11 12 12 12 13 13 12 13 15 15 16 17 18 18 18 19 20 20 21 22 22 23 24 24 25 26 27 28 28 29 30 30 31 31 32 33 33 35 36
10 10 11 11 12 12 12 13 13 13 14 15 16 17 18 18 18 19 19 19 20 21 22 22 23 24 24 25 26 27 27 28 28 29 30 31 31 32 32 33 34 35 36
10 11 11 11 12 12 13 13 14 14 15 16 17 18 18 18 18 19 20 21 21 22 23 24 25 25 26 27 28 28 28 28 28 29 30 31 32 32 33 34 35 35 35
12 13 12 12 12 13 13 14 14 15 16 17 17 18 19 19 19 20 21 22 23 23 24 25 26 27 27 28 28 28 29 29 30 31 31 32 32 33 34 35 35 35 36
14 14 14 14 14 15 15 15 16 16 17 18 18 19 20 21 21 22 23 23 24 25 25 26 26 27 28 28 29 30 30 30 30 31 32 33 33 34 34 35 35 36 36
16 15 15 15 15 15 16 17 17 18 18 19 19 20 21 22 23 24 24 24 25 26 27 27 27 28 29 29 30 30 30 31 31 32 34 34 34 35 35 36 36 37 37
18 18 18 18 17 18 18 18 19 19 20 20 21 22 22 23 23 25 26 27 27 28 28 28 29 30 30 30 31 31 31 31 32 32 33 34 34 34 34 35 36 37 37
19 20 20 19 20 20 20 20 21 22 22 23 23 24 24 24 25 25 27 28 28 29 29 30 31 31 31 31 32 32 32 32 32 32 33 34 35 35 36 36 37 37 38
21 21 22 21 21 22 22 23 23 23 24 24 25 26 26 27 26 27 28 29 29 30 31 31 31 31 32 32 32 32 32 33 33 33 34 35 35 36 36 36 37 37 38
23 24 24 24 23 24 25 25 25 25 25 25 25 26 26 27 27 28 29 30 31 32 31 31 31 31 32 32 32 33 33 33 34 35 35 35 35 35 35 35 36 36 37
26 26 25 25 25 26 27 27 27 26 27 27 27 28 28 29 30 30 31 31 32 32 32 31 31 31 32 32 33 34 34 34 35 34 34 34 35 34 34 34 35 36 36
27 27 27 27 27 28 28 28 27 27 28 28 29 29 30 30 31 32 32 32 32 32 31 31 31 32 32 32 33 33 34 34 34 33 33 33 33 34 34 33 34 35 35
28 28 28 28 29 29 29 28 29 29 29 30 30 30 30 31 31 31 31 31 31 31 31 31 31 32 32 32 33 33 34 33 32 32 32 32 32 32 33 33 33 34 34
30 30 30 30 30 30 30 30 30 30 31 31 31 30 31 30 30 31 31 31 30 31 31 31 31 31 32 33 33 33 32 31 31 30 31 31 31 32 32 33 33 33 34
30 30 30 31 31 30 30 30 30 30 31 31 30 30 30 30 30 30 30 30 30 30 30 30 31 32 33 33 32 32 30 30 30 30 31 31 32 32 32 32 33 33 33
31 31 30 30 30 30 29 28 28 29 30 29 29 29 30 30 30 29 29 30 30 30 30 31 32 32 32 31 31 30 30 30 31 31 31 31 32 32 32 32 32 32 32
30 30 29 30 30 29 29 29 28 29 29 28 28 29 29 29 29 29 29 29 30 30 30 30 30 30 30 30 30 30 30 30 31 31 31 31 31 31 31 31 31 31 30
28 28 29 29 29 29 29 28 28 27 27 27 27 28 28 29 28 28 28 28 29 29 29 30 30 30 29 30 29 29 29 29 29 29 30 30 30 30 30 30 29 29 29
28 28 28 28 28 28 27 26 26 26 26 26 27 27 27 27 27 26 27 27 28 28 28 28 28 28 28 28 28 28 28 28 28 28 28 28 28 28 28 28 27 27 27
27 27 27 26 26 26 25 25 25 25 26 26 26 26 26 26 26 26 26 26 27 27 27 27 28 27 27 27 27 27 26 26 26 26 26 26 27 27 26 26 26 26 26
24 24 25 25 25 24 24 25 25 26 26 26 25 25 25 25 25 25 25 25 26 26 26 27 27 26 26 26 26 25 25 26 26 26 26 26 26 26 25 25 25 25 25
23 24 24 25 24 24 25 25 25 26 26 25 24 24 24 24 24 24 24 25 26 26 26 26 26 25 25 25 25 25 25 26 26 26 26 25 25 25 25 25 25 25 25
22 23 23 23 23 23 23 24 25 24 24 23 23 23 24 24 24 25 25 25 25 26 25 25 25 25 25 25 25 26 26 26 26 26 26 26 25 25 26 26 25 25 25
Wind_Direction
265 255 257 259 260 264 272 271 272 269 261 260 260 259 259 259 260 262 265 268 270 271 274 275 277 278 277 275 275 275 276 279 278 278 278 278 281 282 284 285 285 285 284
268 264 264 266 265 268 275 278 277 274 270 267 264 261 262 263 264 263 265 269 273 275 276 278 279 279 279 278 278 277 277 280 281 281 279 279 282 283 284 285 284 284 284
271 269 270 273 274 274 275 276 275 274 273 270 267 264 265 267 267 266 268 271 274 276 276 277 279 281 281 281 280 280 280 281 282 282 281 281 282 283 283 284 284 285 285
276 273 272 275 276 275 274 271 270 270 273 273 269 267 270 270 270 269 270 272 275 277 278 279 281 282 283 283 283 284 282 283 283 282 282 283 283 284 285 286 286 286 285
282 281 282 282 279 274 273 272 272 273 276 277 275 272 273 273 272 272 273 274 276 277 280 282 282 283 283 284 285 286 286 285 285 285 284 284 284 286 287 288 289 288 287
287 286 286 286 284 279 279 279 278 276 278 279 276 277 277 276 274 275 276 276 278 280 282 283 284 283 283 284 286 286 286 285 284 285 285 285 286 286 287 289 289 288 289
290 290 291 290 288 285 283 282 281 280 279 281 280 279 279 279 278 276 277 277 278 282 283 284 284 284 284 284 285 285 285 284 282 283 285 285 286 287 288 289 289 289 291
290 291 294 292 287 284 281 282 282 280 281 282 283 283 282 281 280 280 279 279 280 282 284 285 286 287 287 286 286 286 286 286 285 285 286 287 288 289 291 290 290 290 290
285 287 288 289 288 286 286 284 283 283 284 285 285 284 284 283 280 280 280 280 283 283 284 286 288 288 286 287 288 288 287 287 288 288 287 288 289 288 290 291 291 291 291
281 281 282 283 283 285 287 286 286 285 286 286 285 285 286 286 284 282 281 281 283 285 287 288 289 289 289 289 290 289 288 288 288 289 289 289 291 291 293 294 294 293 293
282 280 280 280 281 283 286 286 287 286 285 285 284 284 284 284 284 285 286 285 285 286 287 288 289 289 289 289 289 290 290 290 289 289 291 292 293 293 293 294 294 294 294
281 280 281 280 280 283 285 286 286 286 285 283 283 283 283 284 286 287 288 288 288 289 290 289 289 289 290 291 292 291 290 290 291 291 292 294 295 294 294 294 295 295 296
280 280 281 280 281 283 284 286 286 285 285 285 285 285 285 286 287 289 290 289 290 291 291 290 291 290 291 291 292 293 294 294 293 293 294 295 296 296 297 297 297 297 297
281 281 281 281 281 282 283 284 285 284 285 285 285 285 286 288 289 290 290 290 291 291 292 293 293 292 292 292 292 293 294 295 295 294 295 297 298 298 298 298 298 299 299
279 280 280 280 280 281 282 283 283 284 285 285 285 285 286 286 288 290 291 291 290 291 292 293 294 294 294 294 294 294 296 296 296 296 297 298 299 299 298 299 300 301 302
279 279 279 280 281 281 281 281 281 283 284 285 286 285 286 288 289 290 292 292 291 292 292 293 294 295 295 295 296 296 296 295 296 296 297 298 298 299 299 300 301 302 303
277 277 277 279 280 281 281 281 281 283 284 285 285 286 286 287 288 290 290 291 293 293 292 293 294 295 295 296 297 297 297 297 296 296 297 298 298 299 300 300 301 302 303
277 278 278 280 280 280 282 282 282 283 284 284 284 285 287 288 288 289 290 291 292 292 292 293 294 296 297 297 296 297 297 297 297 297 297 298 300 301 302 302 302 303 304
277 277 279 281 281 282 282 283 284 284 285 285 285 286 287 288 289 289 290 291 292 292 293 294 296 297 298 297 297 297 297 297 297 297 298 300 301 302 303 304 304 304 305
274 275 278 280 281 282 284 284 284 285 286 286 287 288 289 290 291 290 291 291 292 294 295 295 296 297 298 299 299 298 299 299 299 300 301 302 302 303 304 305 305 306 307
273 274 277 279 281 282 283 285 285 286 287 289 290 290 290 292 294 294 293 293 294 295 296 296 296 297 299 300 300 300 301 301 301 302 302 303 304 304 305 306 306 307 308
273 275 276 278 280 282 284 285 286 287 287 289 291 292 293 294 295 295 296 297 296 297 297 297 298 298 299 300 301 301 302 302 302 302 303 304 305 305 306 306 307 308 309
271 272 275 278 280 281 282 283 285 286 288 290 292 293 293 294 295 295 296 298 298 299 299 299 299 298 299 299 300 301 302 303 304 305 306 306 306 307 307 308 309 310 310
273 274 276 278 280 282 283 285 286 288 290 292 292 293 294 295 296 296 296 297 297 298 299 299 299 299 299 299 301 302 303 304 305 306 307 307 307 307 307 308 309 310 310
274 275 277 279 280 281 283 285 286 288 289 289 291 293 296 296 296 296 297 298 298 299 299 300 300 299 300 302 303 303 303 304 305 306 307 307 306 307 307 308 308 308 309
275 276 278 279 280 282 284 286 287 287 288 290 293 296 298 298 297 298 298 298 299 299 299 299 300 300 301 301 301 302 302 303 304 304 304 305 305 306 306 306 306 307 308